Weather WX

World > North America > United States > Mississippi

Cornersville, Mississippi Regional Weather

Lat: 34.54N, Lon: 89.26W
Wx Zone: MSZ002
Warning FLW WEATHER ALERT - (More Info. Click Here) Warning
Feedback

Cornersville, MS Regional Weather

Expires:201906161900;;171483
ASUS44 KJAN 161810
RWRMS 

MISSISSIPPI HOURLY WEATHER ROUNDUP
NATIONAL WEATHER SERVICE JACKSON MS
100 PM CDT SUN JUN 16 2019

NOTE: "FAIR: INDICATES FEW OR NO CLOUDS BELOW 12,000 FEET WITH NO
SIGNIFICANT WEATHER AND/OR OBSTRUCTIONS TO VISIBILITY.


MSZ001>002-007>008-010>013-018>021-025>028-034>036-161900-
NORTHWEST MISSISSIPPI
  
CITY           SKY/WX    TMP DP  RH WIND       PRES   REMARKS
BATESVILLE     FAIR      75  70  83 VRB6      29.96S                  
CLARKSDALE     PTSUNNY   90  77  66 S18       29.92S HX 102           
CLEVELAND      TSTM      78  72  82 W17G28    29.96R                  
GREENWOOD      PTSUNNY   88  73  61 S12       29.95F HX  95           
6HR MIN TEMP:  75; 6HR MAX TEMP:  88;                                

GREENVILLE     HVY RAIN  72  69  90 NW7       29.97R FOG              
6HR MIN TEMP:  72; 6HR MAX TEMP:  82; 6HR PCP:  0.36;                

OLIVE BRANCH   CLOUDY    86  72  62 SW13G20   29.92F HX  92           
OXFORD         TSTM      68  66  94 CALM      30.00R                  
TUNICA           N/A     88  70  55 S13       29.92F HX  92           
WINONA         FAIR      87  70  58 S10G20    29.96F HX  92           
$$


SKY/WX - Weather  TMP - Temperature  DP - Dew Point  RH - Relative Humidity
WIND - Wind Direction/Speed PRES - Barometric Pressure VSB - Visibility
WCI - Wind Chill Index E13G22 Wind - East Wind 13 mph/Gusts of 22 mph